Pride Of Canterbury — MPQZ6 — position and weather

sailwx.info

Track history (hours):
 
Tides and Currents Weather Stations Pressure Air Temp Water Temp Dewpoint Dewpoint Depression Visibility Wind Speed Wind Dir Waves Ship Positions

Pride Of Canterbury

Operator: P & O Ferries

Last reported at 2018-May-24 02:25 UTC. Time now 2018-May-24 02:33 UTC.
Position N 51°07' E 001°20'.

Length 180 m; draft 5.7 m.

Type: Passenger vessel. MMSI: 232001060.

Date/timePositionNaut miles runAvg speedWind from/ knotsBaromVisibWave heightAir tempDewpointWater temp
2018-May-24 02:25N 51°07' E 001°20'3 6.9
2018-May-24 02:01N 51°07' E 001°24'918.5
2018-May-24 01:30N 51°02' E 001°37'917.6
2018-May-24 01:00N 50°58' E 001°50'1 2.4
2018-May-24 00:31N 50°58' E 001°51'0 0.0
2018-May-24 00:01N 50°58' E 001°51'1 1.1
2018-May-23 23:31N 50°58' E 001°51'814.7
2018-May-23 22:59N 50°58' E 001°39'919.4
2018-May-23 22:30N 51°04' E 001°27'5 5.9
2018-May-23 21:36N 51°07' E 001°20'2 4.3
2018-May-23 21:14N 51°07' E 001°23'313.2
2018-May-23 21:00N 51°07' E 001°27'917.1
2018-May-23 20:31N 51°02' E 001°38'816.0
2018-May-23 20:00N 50°58' E 001°50'1 2.5
2018-May-23 19:30N 50°58' E 001°52'0 0.0
2018-May-23 18:50N 50°58' E 001°52'3 8.7
2018-May-23 18:29N 50°58' E 001°47'816.2
2018-May-23 17:59N 51°00' E 001°35'919.3
2018-May-23 17:30N 51°06' E 001°23'1 1.0
2018-May-23 16:18N 51°07' E 001°23'518.4
2018-May-23 16:00N 51°05' E 001°30'918.4
2018-May-23 15:30N 50°60' E 001°42'6 8.0
2018-May-23 14:48N 50°58' E 001°51'0 0.0
2018-May-23 14:28N 50°58' E 001°51'3 5.1
2018-May-23 13:57N 50°58' E 001°47'814.6
2018-May-23 13:22N 50°60' E 001°34'617.2
2018-May-23 13:00N 51°04' E 001°27'4 2.9
2018-May-23 11:36N 51°07' E 001°23'217.2
2018-May-23 11:30N 51°07' E 001°25'815.7
2018-May-23 11:01N 51°03' E 001°36'815.8
2018-May-23 10:31N 50°58' E 001°46'3 3.2
2018-May-23 09:27N 50°58' E 001°51'512.2
2018-May-23 09:00N 50°58' E 001°42'816.9
2018-May-23 08:30N 51°03' E 001°31'7 4.1
2018-May-23 06:50N 51°07' E 001°23'515.7
2018-May-23 06:30N 51°07' E 001°31'715.0
2018-May-23 06:00N 51°01' E 001°39'713.8
2018-May-23 05:30N 50°58' E 001°49'1 2.4
2018-May-23 04:57N 50°58' E 001°51'2 3.4
2018-May-23 04:29N 50°58' E 001°49'817.1
2018-May-23 04:00N 51°00' E 001°36'917.2
2018-May-23 03:30N 51°05' E 001°24'4 6.5
2018-May-23 02:56N 51°07' E 001°20'0 0.1
2018-May-23 01:47N 51°07' E 001°20'311.7
2018-May-23 01:31N 51°06' E 001°25'816.2
2018-May-23 01:01N 51°02' E 001°36'816.0
2018-May-23 00:30N 50°58' E 001°47'3 5.4
2018-May-23 00:00N 50°58' E 001°51'0 0.0
2018-May-22 23:31N 50°58' E 001°51'2 3.3
2018-May-22 23:00N 50°58' E 001°49'815.7
2018-May-22 22:30N 51°00' E 001°37'917.4
2018-May-22 22:00N 51°05' E 001°26'4 4.8
2018-May-22 21:09N 51°07' E 001°20'1 3.5
2018-May-22 21:00N 51°07' E 001°21'816.6
2018-May-22 20:30N 51°03' E 001°32'816.9
2018-May-22 20:00N 50°59' E 001°44'5 5.8
2018-May-22 19:12N 50°58' E 001°51'0 0.9
2018-May-22 18:54N 50°58' E 001°51'614.3
2018-May-22 18:30N 50°58' E 001°42'1 2.2
2018-May-22 17:56N 50°59' E 001°41'511.4
2018-May-22 17:30N 51°01' E 001°34'816.6
2018-May-22 17:00N 51°06' E 001°23'2 4.0
2018-May-22 16:27N 51°07' E 001°20'0 0.7
2018-May-22 15:50N 51°07' E 001°21'516.7
2018-May-22 15:30N 51°05' E 001°29'816.3
2018-May-22 15:00N 50°60' E 001°39'815.5
2018-May-22 14:30N 50°58' E 001°51'0 0.6
2018-May-22 14:00N 50°58' E 001°51'2 3.1
2018-May-22 13:30N 50°58' E 001°49'714.4
2018-May-22 13:00N 50°60' E 001°37'816.6
2018-May-22 12:30N 51°04' E 001°27'5 7.8
2018-May-22 11:51N 51°07' E 001°20'0 0.0
2018-May-22 11:28N 51°07' E 001°20'1 2.5
2018-May-22 10:58N 51°07' E 001°22'817.1
2018-May-22 10:31N 51°03' E 001°33'917.3
2018-May-22 10:00N 50°58' E 001°44'4 8.6
2018-May-22 09:31N 50°58' E 001°51'0 0.0
2018-May-22 09:00N 50°58' E 001°51'4 7.8
2018-May-22 08:31N 50°58' E 001°45'1016.0
2018-May-22 07:51N 51°02' E 001°29'617.4
2018-May-22 07:31N 51°06' E 001°23'2 3.6
2018-May-22 06:54N 51°07' E 001°20'0 0.2
2018-May-22 06:21N 51°07' E 001°20'3 9.2
2018-May-22 06:01N 51°07' E 001°25'816.2
2018-May-22 05:31N 51°03' E 001°37'815.6
2018-May-22 05:00N 50°58' E 001°46'3 4.9
2018-May-22 04:20N 50°58' E 001°51'0 0.0
2018-May-22 04:00N 50°58' E 001°51'3 5.8
2018-May-22 03:30N 50°58' E 001°46'1019.2
2018-May-22 03:00N 51°02' E 001°32'918.5
2018-May-22 02:30N 51°07' E 001°21'0 0.7
2018-May-22 01:59N 51°07' E 001°20'0 0.0
2018-May-22 01:17N 51°07' E 001°20'0 0.6
2018-May-22 01:00N 51°07' E 001°20'917.2
2018-May-22 00:30N 51°04' E 001°32'1019.2
2018-May-22 00:00N 50°58' E 001°45'4 7.7
2018-May-21 23:30N 50°58' E 001°51'0 0.0
2018-May-21 23:00N 50°58' E 001°51'0 0.1
2018-May-21 22:30N 50°58' E 001°51'715.0
2018-May-21 22:00N 50°59' E 001°39'1019.5
2018-May-21 21:30N 51°05' E 001°27'5 6.8
2018-May-21 20:47N 51°07' E 001°20'0 0.0
2018-May-21 20:29N 51°07' E 001°20'1 2.9
2018-May-21 19:59N 51°07' E 001°22'918.9
2018-May-21 19:31N 51°03' E 001°35'918.4
2018-May-21 19:00N 50°58' E 001°48'2 4.2
2018-May-21 18:30N 50°58' E 001°51'0 0.0
2018-May-21 18:00N 50°58' E 001°51'4 8.1
2018-May-21 17:31N 50°58' E 001°45'1019.3
2018-May-21 17:01N 51°02' E 001°31'816.3
2018-May-21 16:29N 51°07' E 001°20'0 0.0
2018-May-21 15:50N 51°07' E 001°20'1 2.1
2018-May-21 15:28N 51°07' E 001°21'918.4
2018-May-21 15:00N 51°04' E 001°34'918.6
2018-May-21 14:30N 50°58' E 001°45'4 7.2
2018-May-21 14:00N 50°58' E 001°51'0 0.0
2018-May-21 13:27N 50°58' E 001°51'511.1
2018-May-21 13:01N 50°58' E 001°43'917.1
2018-May-21 12:30N 51°01' E 001°30'917.0
2018-May-21 11:58N 51°07' E 001°20'0 0.0
2018-May-21 11:25N 51°07' E 001°20'0 0.3
2018-May-21 10:59N 51°07' E 001°20'816.5
2018-May-21 10:30N 51°04' E 001°32'1019.6
2018-May-21 10:00N 50°58' E 001°44'4 8.0
2018-May-21 09:29N 50°58' E 001°51'0 0.0
2018-May-21 09:00N 50°58' E 001°51'2 3.3
2018-May-21 08:31N 50°58' E 001°48'917.0
2018-May-21 08:01N 51°00' E 001°35'1019.4
2018-May-21 07:30N 51°06' E 001°23'2 3.7
2018-May-21 06:56N 51°07' E 001°20'0 0.2
2018-May-21 06:16N 51°07' E 001°20'312.6
2018-May-21 06:00N 51°06' E 001°25'917.4
2018-May-21 05:31N 51°02' E 001°37'816.3
2018-May-21 05:00N 50°58' E 001°49'1 2.8
2018-May-21 04:30N 50°58' E 001°51'0 0.0
2018-May-21 04:00N 50°58' E 001°51'3 6.5
2018-May-21 03:30N 50°58' E 001°46'915.1
2018-May-21 02:54N 51°02' E 001°33'513.4
2018-May-21 02:31N 51°05' E 001°26'4 6.9
2018-May-21 01:52N 51°07' E 001°20'0 0.0
2018-May-21 01:22N 51°07' E 001°20'2 3.0
2018-May-21 00:51N 51°07' E 001°22'719.1
2018-May-21 00:30N 51°04' E 001°32'1019.4
2018-May-21 00:00N 50°58' E 001°44'5 9.0
2018-May-20 23:30N 50°58' E 001°51'0 0.0
2018-May-20 23:00N 50°58' E 001°51'0 0.5
2018-May-20 22:30N 50°58' E 001°51'815.2
2018-May-20 22:00N 50°58' E 001°39'917.7
2018-May-20 21:30N 51°03' E 001°27'610.5
2018-May-20 20:54N 51°07' E 001°20'0 0.0
2018-May-20 20:29N 51°07' E 001°20'2 2.6
2018-May-20 19:52N 51°07' E 001°23'617.5
2018-May-20 19:30N 51°05' E 001°32'918.2
2018-May-20 19:00N 50°59' E 001°43'5 9.9
2018-May-20 18:30N 50°58' E 001°51'0 0.0
2018-May-20 17:56N 50°58' E 001°51'3 7.1
2018-May-20 17:30N 50°58' E 001°46'1117.6
2018-May-20 16:53N 51°02' E 001°30'8 9.5
2018-May-20 16:01N 51°07' E 001°20'0 0.1
2018-May-20 15:41N 51°07' E 001°20'1 6.2
2018-May-20 15:27N 51°07' E 001°22'817.7
2018-May-20 15:00N 51°04' E 001°34'917.7
2018-May-20 14:30N 50°58' E 001°45'4 7.9
2018-May-20 14:00N 50°58' E 001°51'0 0.0
2018-May-20 13:30N 50°58' E 001°51'1 2.8
2018-May-20 13:00N 50°58' E 001°49'918.1
2018-May-20 12:30N 50°59' E 001°35'918.7
2018-May-20 12:00N 51°05' E 001°24'3 6.7
2018-May-20 11:30N 51°07' E 001°20'2 2.7
2018-May-20 10:55N 51°07' E 001°23'819.2
2018-May-20 10:31N 51°04' E 001°34'1019.3
2018-May-20 10:00N 50°58' E 001°46'3 6.6
2018-May-20 09:30N 50°58' E 001°51'0 0.4
2018-May-20 08:47N 50°58' E 001°51'414.9
2018-May-20 08:30N 50°58' E 001°44'917.9
2018-May-20 08:00N 51°02' E 001°31'917.6
2018-May-20 07:30N 51°07' E 001°20'0 0.1
2018-May-20 06:48N 51°07' E 001°20'0 0.0
2018-May-20 06:16N 51°07' E 001°20'1 3.0
2018-May-20 05:52N 51°07' E 001°22'718.4
2018-May-20 05:31N 51°04' E 001°31'918.7
2018-May-20 05:00N 50°59' E 001°43'5 6.9
2018-May-20 04:18N 50°58' E 001°51'0 0.0
2018-May-20 03:47N 50°58' E 001°51'2 5.3
2018-May-20 03:29N 50°58' E 001°48'918.0
2018-May-20 03:00N 50°60' E 001°35'714.5
2018-May-20 02:30N 51°05' E 001°27'5 7.7
2018-May-20 01:53N 51°07' E 001°20'0 0.0
2018-May-20 01:29N 51°07' E 001°20'2 3.2
2018-May-20 01:00N 51°07' E 001°22'917.4
2018-May-20 00:30N 51°04' E 001°35'816.6
2018-May-20 00:00N 50°58' E 001°45'4 4.8
2018-May-19 23:13N 50°58' E 001°51'0 0.0
2018-May-19 22:56N 50°58' E 001°51'0 0.0
2018-May-19 22:27N 50°58' E 001°51'612.7
2018-May-19 21:57N 50°58' E 001°41'817.8
2018-May-19 21:30N 51°02' E 001°30'816.0
2018-May-19 21:00N 51°07' E 001°20'0 0.1
2018-May-19 20:18N 51°07' E 001°20'1 4.7
2018-May-19 20:00N 51°07' E 001°22'918.3
2018-May-19 19:30N 51°03' E 001°35'918.4
2018-May-19 19:01N 50°58' E 001°47'2 3.8
2018-May-19 18:25N 50°58' E 001°51'0 0.8
2018-May-19 17:50N 50°58' E 001°50'516.5
2018-May-19 17:30N 50°58' E 001°42'918.8
2018-May-19 17:01N 51°04' E 001°30'6 4.3
2018-May-19 15:42N 51°07' E 001°23'317.0
2018-May-19 15:30N 51°06' E 001°28'917.5
2018-May-19 15:01N 51°01' E 001°39'815.4
2018-May-19 14:30N 50°58' E 001°50'1 1.3
2018-May-19 14:00N 50°58' E 001°51'0 0.0
2018-May-19 13:26N 50°58' E 001°51'4 8.6
2018-May-19 12:59N 50°58' E 001°45'919.3
2018-May-19 12:30N 51°02' E 001°32'917.6
2018-May-19 12:00N 51°07' E 001°20'1 0.8
2018-May-19 11:23N 51°07' E 001°20'1 3.0
2018-May-19 10:58N 51°07' E 001°22'919.4
2018-May-19 10:30N 51°03' E 001°34'1019.0
2018-May-19 10:00N 50°58' E 001°48'2 4.1
2018-May-19 09:29N 50°58' E 001°51'0 0.5
2018-May-19 08:42N 50°58' E 001°50'414.9
2018-May-19 08:27N 50°58' E 001°45'816.8
2018-May-19 07:59N 51°01' E 001°33'918.9
2018-May-19 07:31N 51°06' E 001°22'2 3.1
2018-May-19 06:57N 51°07' E 001°20'1 1.5
2018-May-19 06:04N 51°07' E 001°22'118.1
2018-May-19 06:00N 51°07' E 001°24'918.5
2018-May-19 05:30N 51°02' E 001°36'917.9
2018-May-19 05:00N 50°58' E 001°49'1 1.9
2018-May-19 04:27N 50°58' E 001°51'0 0.0
2018-May-19 03:59N 50°58' E 001°51'2 5.1
2018-May-19 03:30N 50°58' E 001°47'714.5
2018-May-19 03:00N 51°00' E 001°36'817.2
2018-May-19 02:30N 51°05' E 001°25'4 5.0
2018-May-19 01:44N 51°07' E 001°20'2 5.8
2018-May-19 01:27N 51°07' E 001°23'818.3
2018-May-19 01:00N 51°03' E 001°34'918.1
2018-May-19 00:30N 50°58' E 001°46'3 6.4
2018-May-18 23:59N 50°58' E 001°51'2 4.1
2018-May-18 23:26N 50°58' E 001°47'713.7
2018-May-18 22:57N 50°58' E 001°37'919.1
2018-May-18 22:30N 51°04' E 001°26'5 3.5
2018-May-18 21:08N 51°07' E 001°21'1 9.8
2018-May-18 21:00N 51°07' E 001°23'1019.5
2018-May-18 20:30N 51°02' E 001°36'918.9
2018-May-18 20:00N 50°58' E 001°50'1 0.7
2018-May-18 19:13N 50°58' E 001°51'2 6.9
2018-May-18 18:59N 50°58' E 001°48'816.7
2018-May-18 18:30N 51°00' E 001°36'919.0
2018-May-18 18:01N 51°06' E 001°23'2 1.4
2018-May-18 16:44N 51°07' E 001°22'418.6
2018-May-18 16:31N 51°05' E 001°28'918.9
2018-May-18 16:01N 51°00' E 001°41'7 4.5
2018-May-18 14:30N 50°58' E 001°51'1117.0
2018-May-18 13:51N 51°01' E 001°34'619.3
2018-May-18 13:31N 51°05' E 001°25'4 3.9
2018-May-18 12:27N 51°07' E 001°20'3 6.0
2018-May-18 12:01N 51°07' E 001°24'918.7
2018-May-18 11:31N 51°02' E 001°37'917.3
2018-May-18 11:01N 50°58' E 001°50'1 0.4
2018-May-18 09:49N 50°58' E 001°50'310.5
2018-May-18 09:29N 50°58' E 001°45'816.3
2018-May-18 09:00N 50°59' E 001°33'918.0
2018-May-18 08:29N 51°06' E 001°23'2 4.3
2018-May-18 07:57N 51°07' E 001°20'0 0.3
2018-May-18 06:58N 51°07' E 001°20'3 6.9
2018-May-18 06:30N 51°07' E 001°25'612.5
2018-May-18 06:00N 51°03' E 001°33'816.8
2018-May-18 05:31N 50°58' E 001°44'4 7.9
2018-May-18 04:59N 50°58' E 001°51'0 0.0
2018-May-18 04:18N 50°58' E 001°51'0 0.0
2018-May-18 03:48N 50°58' E 001°51'0 0.0
2018-May-18 03:25N 50°58' E 001°51'0 0.0
2018-May-18 03:00N 50°58' E 001°51'0 0.0
2018-May-18 01:50N 50°58' E 001°51'0 0.0
2018-May-18 01:19N 50°58' E 001°51'1 2.4
2018-May-18 01:00N 50°58' E 001°50'4 7.4
2018-May-18 00:30N 50°58' E 001°44'1 2.9
2018-May-18 00:00N 50°58' E 001°42'4 8.3
2018-May-17 23:29N 50°60' E 001°35'612.4
2018-May-17 23:01N 51°03' E 001°28'7 7.2
2018-May-17 22:06N 51°07' E 001°20'0 0.0
2018-May-17 22:00N 51°07' E 001°20'0 0.2
2018-May-17 20:59N 51°07' E 001°20'816.6
2018-May-17 20:30N 51°04' E 001°31'918.9
2018-May-17 20:01N 50°58' E 001°44'5 7.3
2018-May-17 19:23N 50°58' E 001°51'0 0.0
2018-May-17 18:47N 50°58' E 001°51'1 1.8
2018-May-17 18:29N 50°58' E 001°50'714.2
2018-May-17 18:00N 50°59' E 001°40'917.9
2018-May-17 17:30N 51°03' E 001°27'6 7.8
2018-May-17 16:43N 51°07' E 001°20'0 0.0
2018-May-17 16:20N 51°07' E 001°20'3 8.8
2018-May-17 16:01N 51°07' E 001°25'918.1
2018-May-17 15:31N 51°03' E 001°38'816.2
2018-May-17 15:00N 50°58' E 001°49'1 2.3
2018-May-17 14:20N 50°58' E 001°51'0 0.0
2018-May-17 13:59N 50°58' E 001°51'3 6.3
2018-May-17 13:30N 50°58' E 001°46'917.2
2018-May-17 13:00N 51°01' E 001°34'10 6.4
2018-May-17 11:26N 51°07' E 001°21'717.2
2018-May-17 11:00N 51°04' E 001°32'918.4
2018-May-17 10:30N 50°59' E 001°43'5 7.4
2018-May-17 09:52N 50°58' E 001°51'0 0.0
2018-May-17 09:28N 50°58' E 001°51'1 2.3
2018-May-17 09:01N 50°58' E 001°49'815.3
2018-May-17 08:30N 50°60' E 001°37'917.8
2018-May-17 08:00N 51°04' E 001°25'5 3.3
2018-May-17 06:38N 51°07' E 001°20'0 0.0
2018-May-17 06:25N 51°07' E 001°20'2 2.4
2018-May-17 05:47N 51°07' E 001°22'310.7
2018-May-17 05:30N 51°09' E 001°26'0 0.1
2018-May-17 05:00N 51°09' E 001°26'0 0.8
2018-May-17 04:30N 51°09' E 001°26'2 3.6
2018-May-17 04:01N 51°08' E 001°25'3 6.3
2018-May-17 03:30N 51°07' E 001°20'0 0.2
2018-May-17 02:58N 51°07' E 001°20'2 2.9
2018-May-17 02:25N 51°07' E 001°23'614.6
2018-May-17 02:00N 51°04' E 001°31'816.5
2018-May-17 01:31N 50°59' E 001°42'611.8
2018-May-17 01:01N 50°58' E 001°51'0 0.2
2018-May-17 00:12N 50°58' E 001°51'2 7.4
2018-May-17 00:00N 50°58' E 001°49'611.9
2018-May-16 23:27N 50°59' E 001°38'818.9
2018-May-16 23:01N 51°03' E 001°27'5 3.0
2018-May-16 21:23N 51°07' E 001°22'718.8
2018-May-16 21:00N 51°05' E 001°33'816.8
2018-May-16 20:30N 50°59' E 001°43'5 5.4
2018-May-16 19:31N 50°58' E 001°51'0 0.0
2018-May-16 19:06N 50°58' E 001°51'0 1.8
2018-May-16 18:58N 50°58' E 001°51'612.5
2018-May-16 18:30N 50°58' E 001°42'3 6.4
2018-May-16 18:00N 50°60' E 001°37'917.9
2018-May-16 17:30N 51°05' E 001°26'4 3.2
2018-May-16 16:13N 51°07' E 001°21'314.1
2018-May-16 16:00N 51°06' E 001°25'917.4
2018-May-16 15:30N 51°02' E 001°37'816.2
2018-May-16 15:00N 50°58' E 001°49'2 2.6
2018-May-16 14:24N 50°58' E 001°51'0 0.1
2018-May-16 13:29N 50°58' E 001°51'816.3
2018-May-16 13:00N 50°59' E 001°38'918.6
2018-May-16 12:30N 51°05' E 001°27'5 4.2
2018-May-16 11:18N 51°07' E 001°20'2 5.3
2018-May-16 11:00N 51°07' E 001°23'917.8
2018-May-16 10:30N 51°03' E 001°35'917.3
2018-May-16 10:00N 50°58' E 001°46'3 2.2
2018-May-16 08:42N 50°58' E 001°51'311.9
2018-May-16 08:29N 50°58' E 001°47'816.5
2018-May-16 08:00N 51°00' E 001°35'918.4
2018-May-16 07:30N 51°06' E 001°23'2 2.1
2018-May-16 06:20N 51°07' E 001°20'1 3.0
2018-May-16 06:00N 51°07' E 001°22'917.5
2018-May-16 05:30N 51°04' E 001°34'917.5
2018-May-16 05:01N 50°58' E 001°45'4 4.4
2018-May-16 04:08N 50°58' E 001°51'0 0.5
2018-May-16 03:43N 50°58' E 001°51'313.4
2018-May-16 03:30N 50°58' E 001°46'816.3
2018-May-16 03:00N 50°60' E 001°34'816.5
2018-May-16 02:30N 51°06' E 001°24'3 4.6
2018-May-16 01:48N 51°07' E 001°20'0 0.3
2018-May-16 01:24N 51°07' E 001°20'512.5
2018-May-16 01:01N 51°06' E 001°27'918.1
2018-May-16 00:30N 51°01' E 001°40'714.8
2018-May-16 00:01N 50°58' E 001°51'0 0.3
2018-May-15 23:07N 50°58' E 001°51'0 1.9
2018-May-15 23:00N 50°58' E 001°51'816.9
2018-May-15 22:30N 50°59' E 001°37'918.4
2018-May-15 22:00N 51°05' E 001°26'4 3.1
2018-May-15 20:34N 51°07' E 001°20'0 1.9
2018-May-15 20:21N 51°07' E 001°21'516.0
2018-May-15 20:00N 51°06' E 001°29'916.9
2018-May-15 19:30N 51°01' E 001°39'815.4
2018-May-15 19:00N 50°58' E 001°51'0 0.3
2018-May-15 18:30N 50°58' E 001°51'1 2.8
2018-May-15 18:00N 50°58' E 001°49'510.0
2018-May-15 17:30N 50°59' E 001°41'918.5
2018-May-15 17:00N 51°04' E 001°29'610.7
2018-May-15 16:24N 51°07' E 001°20'0 0.0
2018-May-15 15:52N 51°07' E 001°20'2 5.9
2018-May-15 15:31N 51°07' E 001°23'918.8
2018-May-15 15:00N 51°02' E 001°36'917.6
2018-May-15 14:30N 50°58' E 001°49'1 1.4
2018-May-15 13:30N 50°58' E 001°51'612.8
2018-May-15 13:00N 50°59' E 001°41'1019.3
2018-May-15 12:30N 51°04' E 001°28'5 3.1
2018-May-15 10:59N 51°07' E 001°23'918.2
2018-May-15 10:30N 51°03' E 001°35'917.5
2018-May-15 10:00N 50°58' E 001°46'3 5.0
2018-May-15 09:21N 50°58' E 001°51'0 0.6
2018-May-15 08:38N 50°58' E 001°50'315.6
2018-May-15 08:25N 50°58' E 001°45'716.9
2018-May-15 08:00N 51°00' E 001°35'918.4
2018-May-15 07:30N 51°06' E 001°23'2 2.2
2018-May-15 06:26N 51°07' E 001°20'4 8.7
2018-May-15 06:00N 51°07' E 001°26'815.6
2018-May-15 05:30N 51°02' E 001°36'816.1
2018-May-15 05:00N 50°58' E 001°47'2 3.1
2018-May-15 04:13N 50°58' E 001°51'0 0.5
2018-May-15 03:56N 50°58' E 001°51'715.5
2018-May-15 03:30N 50°58' E 001°40'814.6
2018-May-15 02:59N 51°03' E 001°31'611.6
2018-May-15 02:30N 51°06' E 001°23'3 2.2
2018-May-15 01:18N 51°07' E 001°20'2 4.6
2018-May-15 00:57N 51°07' E 001°23'717.0
2018-May-15 00:30N 51°05' E 001°34'815.9
2018-May-15 00:00N 50°59' E 001°43'5 4.0
2018-May-14 22:42N 50°58' E 001°51'1 1.9
2018-May-14 22:25N 50°58' E 001°50'918.4
2018-May-14 21:55N 51°01' E 001°36'818.6
2018-May-14 21:30N 51°05' E 001°26'4 4.0
2018-May-14 20:25N 51°07' E 001°20'513.5
2018-May-14 20:00N 51°06' E 001°28'918.7
2018-May-14 19:30N 51°00' E 001°40'714.0
2018-May-14 19:00N 50°58' E 001°51'0 0.0
2018-May-14 18:28N 50°58' E 001°51'3 7.4
2018-May-14 18:00N 50°58' E 001°45'816.8
2018-May-14 17:30N 51°01' E 001°33'10 7.7
2018-May-14 16:09N 51°07' E 001°20'0 0.5
2018-May-14 15:54N 51°07' E 001°20'512.2
2018-May-14 15:30N 51°06' E 001°27'918.5
2018-May-14 15:01N 51°01' E 001°39'815.2
2018-May-14 14:30N 50°58' E 001°51'0 0.2
2018-May-14 14:00N 50°58' E 001°51'1 1.7
2018-May-14 13:31N 50°58' E 001°50'815.4
2018-May-14 13:00N 50°58' E 001°38'917.3
2018-May-14 12:30N 51°04' E 001°27'6 6.6
2018-May-14 11:38N 51°07' E 001°20'0 0.0
2018-May-14 11:20N 51°07' E 001°20'2 4.0
2018-May-14 10:55N 51°07' E 001°23'717.4
2018-May-14 10:31N 51°05' E 001°33'917.7
2018-May-14 10:01N 50°59' E 001°44'4 8.8
2018-May-14 09:30N 50°58' E 001°51'0 0.0
2018-May-14 09:01N 50°58' E 001°51'2 3.3
2018-May-14 08:30N 50°58' E 001°48'918.7
2018-May-14 08:00N 50°60' E 001°34'918.9
2018-May-14 07:30N 51°07' E 001°23'2 3.5
2018-May-14 06:54N 51°07' E 001°20'0 0.0
2018-May-14 06:16N 51°07' E 001°20'2 8.2
2018-May-14 06:00N 51°07' E 001°23'917.2
2018-May-14 05:30N 51°03' E 001°36'816.5
2018-May-14 05:01N 50°58' E 001°46'3 6.1
2018-May-14 04:29N 50°58' E 001°51'0 0.0
2018-May-14 03:46N 50°58' E 001°51'310.8
2018-May-14 03:31N 50°58' E 001°47'1117.3
2018-May-14 02:54N 51°03' E 001°32'  
Track history (hours):
 
Tides and Currents Weather Stations Pressure Air Temp Water Temp Dewpoint Dewpoint Depression Visibility Wind Speed Wind Dir Waves Ship Positions

Pride Of Canterbury

Operator: P & O Ferries

Last reported at 2018-May-24 02:25 UTC. Time now 2018-May-24 02:33 UTC.
Position N 51°07' E 001°20'.

Length 180 m; draft 5.7 m.

Type: Passenger vessel. MMSI: 232001060.

Date/timePositionNaut miles runAvg speedWind from/ knotsBaromVisibWave heightAir tempDewpointWater temp
2018-May-24 02:25N 51°07' E 001°20'3 6.9
2018-May-24 02:01N 51°07' E 001°24'918.5
2018-May-24 01:30N 51°02' E 001°37'917.6
2018-May-24 01:00N 50°58' E 001°50'1 2.4
2018-May-24 00:31N 50°58' E 001°51'0 0.0
2018-May-24 00:01N 50°58' E 001°51'1 1.1
2018-May-23 23:31N 50°58' E 001°51'814.7
2018-May-23 22:59N 50°58' E 001°39'919.4
2018-May-23 22:30N 51°04' E 001°27'5 5.9
2018-May-23 21:36N 51°07' E 001°20'2 4.3
2018-May-23 21:14N 51°07' E 001°23'313.2
2018-May-23 21:00N 51°07' E 001°27'917.1
2018-May-23 20:31N 51°02' E 001°38'816.0
2018-May-23 20:00N 50°58' E 001°50'1 2.5
2018-May-23 19:30N 50°58' E 001°52'0 0.0
2018-May-23 18:50N 50°58' E 001°52'3 8.7
2018-May-23 18:29N 50°58' E 001°47'816.2
2018-May-23 17:59N 51°00' E 001°35'919.3
2018-May-23 17:30N 51°06' E 001°23'1 1.0
2018-May-23 16:18N 51°07' E 001°23'518.4
2018-May-23 16:00N 51°05' E 001°30'918.4
2018-May-23 15:30N 50°60' E 001°42'6 8.0
2018-May-23 14:48N 50°58' E 001°51'0 0.0
2018-May-23 14:28N 50°58' E 001°51'3 5.1
2018-May-23 13:57N 50°58' E 001°47'814.6
2018-May-23 13:22N 50°60' E 001°34'617.2
2018-May-23 13:00N 51°04' E 001°27'4 2.9
2018-May-23 11:36N 51°07' E 001°23'217.2
2018-May-23 11:30N 51°07' E 001°25'815.7
2018-May-23 11:01N 51°03' E 001°36'815.8
2018-May-23 10:31N 50°58' E 001°46'3 3.2
2018-May-23 09:27N 50°58' E 001°51'512.2
2018-May-23 09:00N 50°58' E 001°42'816.9
2018-May-23 08:30N 51°03' E 001°31'7 4.1
2018-May-23 06:50N 51°07' E 001°23'515.7
2018-May-23 06:30N 51°07' E 001°31'715.0
2018-May-23 06:00N 51°01' E 001°39'713.8
2018-May-23 05:30N 50°58' E 001°49'1 2.4
2018-May-23 04:57N 50°58' E 001°51'2 3.4
2018-May-23 04:29N 50°58' E 001°49'817.1
2018-May-23 04:00N 51°00' E 001°36'917.2
2018-May-23 03:30N 51°05' E 001°24'4 6.5
2018-May-23 02:56N 51°07' E 001°20'0 0.1
2018-May-23 01:47N 51°07' E 001°20'311.7
2018-May-23 01:31N 51°06' E 001°25'816.2
2018-May-23 01:01N 51°02' E 001°36'816.0
2018-May-23 00:30N 50°58' E 001°47'3 5.4
2018-May-23 00:00N 50°58' E 001°51'0 0.0
2018-May-22 23:31N 50°58' E 001°51'2 3.3
2018-May-22 23:00N 50°58' E 001°49'815.7
2018-May-22 22:30N 51°00' E 001°37'917.4
2018-May-22 22:00N 51°05' E 001°26'4 4.8
2018-May-22 21:09N 51°07' E 001°20'1 3.5
2018-May-22 21:00N 51°07' E 001°21'816.6
2018-May-22 20:30N 51°03' E 001°32'816.9
2018-May-22 20:00N 50°59' E 001°44'5 5.8
2018-May-22 19:12N 50°58' E 001°51'0 0.9
2018-May-22 18:54N 50°58' E 001°51'614.3
2018-May-22 18:30N 50°58' E 001°42'1 2.2
2018-May-22 17:56N 50°59' E 001°41'511.4
2018-May-22 17:30N 51°01' E 001°34'816.6
2018-May-22 17:00N 51°06' E 001°23'2 4.0
2018-May-22 16:27N 51°07' E 001°20'0 0.7
2018-May-22 15:50N 51°07' E 001°21'516.7
2018-May-22 15:30N 51°05' E 001°29'816.3
2018-May-22 15:00N 50°60' E 001°39'815.5
2018-May-22 14:30N 50°58' E 001°51'0 0.6
2018-May-22 14:00N 50°58' E 001°51'2 3.1
2018-May-22 13:30N 50°58' E 001°49'714.4
2018-May-22 13:00N 50°60' E 001°37'816.6
2018-May-22 12:30N 51°04' E 001°27'5 7.8
2018-May-22 11:51N 51°07' E 001°20'0 0.0
2018-May-22 11:28N 51°07' E 001°20'1 2.5
2018-May-22 10:58N 51°07' E 001°22'817.1
2018-May-22 10:31N 51°03' E 001°33'917.3
2018-May-22 10:00N 50°58' E 001°44'4 8.6
2018-May-22 09:31N 50°58' E 001°51'0 0.0
2018-May-22 09:00N 50°58' E 001°51'4 7.8
2018-May-22 08:31N 50°58' E 001°45'1016.0
2018-May-22 07:51N 51°02' E 001°29'617.4
2018-May-22 07:31N 51°06' E 001°23'2 3.6
2018-May-22 06:54N 51°07' E 001°20'0 0.2
2018-May-22 06:21N 51°07' E 001°20'3 9.2
2018-May-22 06:01N 51°07' E 001°25'816.2
2018-May-22 05:31N 51°03' E 001°37'815.6
2018-May-22 05:00N 50°58' E 001°46'3 4.9
2018-May-22 04:20N 50°58' E 001°51'0 0.0
2018-May-22 04:00N 50°58' E 001°51'3 5.8
2018-May-22 03:30N 50°58' E 001°46'1019.2
2018-May-22 03:00N 51°02' E 001°32'918.5
2018-May-22 02:30N 51°07' E 001°21'0 0.7
2018-May-22 01:59N 51°07' E 001°20'0 0.0
2018-May-22 01:17N 51°07' E 001°20'0 0.6
2018-May-22 01:00N 51°07' E 001°20'917.2
2018-May-22 00:30N 51°04' E 001°32'1019.2
2018-May-22 00:00N 50°58' E 001°45'4 7.7
2018-May-21 23:30N 50°58' E 001°51'0 0.0
2018-May-21 23:00N 50°58' E 001°51'0 0.1
2018-May-21 22:30N 50°58' E 001°51'715.0
2018-May-21 22:00N 50°59' E 001°39'1019.5
2018-May-21 21:30N 51°05' E 001°27'5 6.8
2018-May-21 20:47N 51°07' E 001°20'0 0.0
2018-May-21 20:29N 51°07' E 001°20'1 2.9
2018-May-21 19:59N 51°07' E 001°22'918.9
2018-May-21 19:31N 51°03' E 001°35'918.4
2018-May-21 19:00N 50°58' E 001°48'2 4.2
2018-May-21 18:30N 50°58' E 001°51'0 0.0
2018-May-21 18:00N 50°58' E 001°51'4 8.1
2018-May-21 17:31N 50°58' E 001°45'1019.3
2018-May-21 17:01N 51°02' E 001°31'816.3
2018-May-21 16:29N 51°07' E 001°20'0 0.0
2018-May-21 15:50N 51°07' E 001°20'1 2.1
2018-May-21 15:28N 51°07' E 001°21'918.4
2018-May-21 15:00N 51°04' E 001°34'918.6
2018-May-21 14:30N 50°58' E 001°45'4 7.2
2018-May-21 14:00N 50°58' E 001°51'0 0.0
2018-May-21 13:27N 50°58' E 001°51'511.1
2018-May-21 13:01N 50°58' E 001°43'917.1
2018-May-21 12:30N 51°01' E 001°30'917.0
2018-May-21 11:58N 51°07' E 001°20'0 0.0
2018-May-21 11:25N 51°07' E 001°20'0 0.3
2018-May-21 10:59N 51°07' E 001°20'816.5
2018-May-21 10:30N 51°04' E 001°32'1019.6
2018-May-21 10:00N 50°58' E 001°44'4 8.0
2018-May-21 09:29N 50°58' E 001°51'0 0.0
2018-May-21 09:00N 50°58' E 001°51'2 3.3
2018-May-21 08:31N 50°58' E 001°48'917.0
2018-May-21 08:01N 51°00' E 001°35'1019.4
2018-May-21 07:30N 51°06' E 001°23'2 3.7
2018-May-21 06:56N 51°07' E 001°20'0 0.2
2018-May-21 06:16N 51°07' E 001°20'312.6
2018-May-21 06:00N 51°06' E 001°25'917.4
2018-May-21 05:31N 51°02' E 001°37'816.3
2018-May-21 05:00N 50°58' E 001°49'1 2.8
2018-May-21 04:30N 50°58' E 001°51'0 0.0
2018-May-21 04:00N 50°58' E 001°51'3 6.5
2018-May-21 03:30N 50°58' E 001°46'915.1
2018-May-21 02:54N 51°02' E 001°33'513.4
2018-May-21 02:31N 51°05' E 001°26'4 6.9
2018-May-21 01:52N 51°07' E 001°20'0 0.0
2018-May-21 01:22N 51°07' E 001°20'2 3.0
2018-May-21 00:51N 51°07' E 001°22'719.1
2018-May-21 00:30N 51°04' E 001°32'1019.4
2018-May-21 00:00N 50°58' E 001°44'5 9.0
2018-May-20 23:30N 50°58' E 001°51'0 0.0
2018-May-20 23:00N 50°58' E 001°51'0 0.5
2018-May-20 22:30N 50°58' E 001°51'815.2
2018-May-20 22:00N 50°58' E 001°39'917.7
2018-May-20 21:30N 51°03' E 001°27'610.5
2018-May-20 20:54N 51°07' E 001°20'0 0.0
2018-May-20 20:29N 51°07' E 001°20'2 2.6
2018-May-20 19:52N 51°07' E 001°23'617.5
2018-May-20 19:30N 51°05' E 001°32'918.2
2018-May-20 19:00N 50°59' E 001°43'5 9.9
2018-May-20 18:30N 50°58' E 001°51'0 0.0
2018-May-20 17:56N 50°58' E 001°51'3 7.1
2018-May-20 17:30N 50°58' E 001°46'1117.6
2018-May-20 16:53N 51°02' E 001°30'8 9.5
2018-May-20 16:01N 51°07' E 001°20'0 0.1
2018-May-20 15:41N 51°07' E 001°20'1 6.2
2018-May-20 15:27N 51°07' E 001°22'817.7
2018-May-20 15:00N 51°04' E 001°34'917.7
2018-May-20 14:30N 50°58' E 001°45'4 7.9
2018-May-20 14:00N 50°58' E 001°51'0 0.0
2018-May-20 13:30N 50°58' E 001°51'1 2.8
2018-May-20 13:00N 50°58' E 001°49'918.1
2018-May-20 12:30N 50°59' E 001°35'918.7
2018-May-20 12:00N 51°05' E 001°24'3 6.7
2018-May-20 11:30N 51°07' E 001°20'2 2.7
2018-May-20 10:55N 51°07' E 001°23'819.2
2018-May-20 10:31N 51°04' E 001°34'1019.3
2018-May-20 10:00N 50°58' E 001°46'3 6.6
2018-May-20 09:30N 50°58' E 001°51'0 0.4
2018-May-20 08:47N 50°58' E 001°51'414.9
2018-May-20 08:30N 50°58' E 001°44'917.9
2018-May-20 08:00N 51°02' E 001°31'917.6
2018-May-20 07:30N 51°07' E 001°20'0 0.1
2018-May-20 06:48N 51°07' E 001°20'0 0.0
2018-May-20 06:16N 51°07' E 001°20'1 3.0
2018-May-20 05:52N 51°07' E 001°22'718.4
2018-May-20 05:31N 51°04' E 001°31'918.7
2018-May-20 05:00N 50°59' E 001°43'5 6.9
2018-May-20 04:18N 50°58' E 001°51'0 0.0
2018-May-20 03:47N 50°58' E 001°51'2 5.3
2018-May-20 03:29N 50°58' E 001°48'918.0
2018-May-20 03:00N 50°60' E 001°35'714.5
2018-May-20 02:30N 51°05' E 001°27'5 7.7
2018-May-20 01:53N 51°07' E 001°20'0 0.0
2018-May-20 01:29N 51°07' E 001°20'2 3.2
2018-May-20 01:00N 51°07' E 001°22'917.4
2018-May-20 00:30N 51°04' E 001°35'816.6
2018-May-20 00:00N 50°58' E 001°45'4 4.8
2018-May-19 23:13N 50°58' E 001°51'0 0.0
2018-May-19 22:56N 50°58' E 001°51'0 0.0
2018-May-19 22:27N 50°58' E 001°51'612.7
2018-May-19 21:57N 50°58' E 001°41'817.8
2018-May-19 21:30N 51°02' E 001°30'816.0
2018-May-19 21:00N 51°07' E 001°20'0 0.1
2018-May-19 20:18N 51°07' E 001°20'1 4.7
2018-May-19 20:00N 51°07' E 001°22'918.3
2018-May-19 19:30N 51°03' E 001°35'918.4
2018-May-19 19:01N 50°58' E 001°47'2 3.8
2018-May-19 18:25N 50°58' E 001°51'0 0.8
2018-May-19 17:50N 50°58' E 001°50'516.5
2018-May-19 17:30N 50°58' E 001°42'918.8
2018-May-19 17:01N 51°04' E 001°30'6 4.3
2018-May-19 15:42N 51°07' E 001°23'317.0
2018-May-19 15:30N 51°06' E 001°28'917.5
2018-May-19 15:01N 51°01' E 001°39'815.4
2018-May-19 14:30N 50°58' E 001°50'1 1.3
2018-May-19 14:00N 50°58' E 001°51'0 0.0
2018-May-19 13:26N 50°58' E 001°51'4 8.6
2018-May-19 12:59N 50°58' E 001°45'919.3
2018-May-19 12:30N 51°02' E 001°32'917.6
2018-May-19 12:00N 51°07' E 001°20'1 0.8
2018-May-19 11:23N 51°07' E 001°20'1 3.0
2018-May-19 10:58N 51°07' E 001°22'919.4
2018-May-19 10:30N 51°03' E 001°34'1019.0
2018-May-19 10:00N 50°58' E 001°48'2 4.1
2018-May-19 09:29N 50°58' E 001°51'0 0.5
2018-May-19 08:42N 50°58' E 001°50'414.9
2018-May-19 08:27N 50°58' E 001°45'816.8
2018-May-19 07:59N 51°01' E 001°33'918.9
2018-May-19 07:31N 51°06' E 001°22'2 3.1
2018-May-19 06:57N 51°07' E 001°20'1 1.5
2018-May-19 06:04N 51°07' E 001°22'118.1
2018-May-19 06:00N 51°07' E 001°24'918.5
2018-May-19 05:30N 51°02' E 001°36'917.9
2018-May-19 05:00N 50°58' E 001°49'1 1.9
2018-May-19 04:27N 50°58' E 001°51'0 0.0
2018-May-19 03:59N 50°58' E 001°51'2 5.1
2018-May-19 03:30N 50°58' E 001°47'714.5
2018-May-19 03:00N 51°00' E 001°36'817.2
2018-May-19 02:30N 51°05' E 001°25'4 5.0
2018-May-19 01:44N 51°07' E 001°20'2 5.8
2018-May-19 01:27N 51°07' E 001°23'818.3
2018-May-19 01:00N 51°03' E 001°34'918.1
2018-May-19 00:30N 50°58' E 001°46'3 6.4
2018-May-18 23:59N 50°58' E 001°51'2 4.1
2018-May-18 23:26N 50°58' E 001°47'713.7
2018-May-18 22:57N 50°58' E 001°37'919.1
2018-May-18 22:30N 51°04' E 001°26'5 3.5
2018-May-18 21:08N 51°07' E 001°21'1 9.8
2018-May-18 21:00N 51°07' E 001°23'1019.5
2018-May-18 20:30N 51°02' E 001°36'918.9
2018-May-18 20:00N 50°58' E 001°50'1 0.7
2018-May-18 19:13N 50°58' E 001°51'2 6.9
2018-May-18 18:59N 50°58' E 001°48'816.7
2018-May-18 18:30N 51°00' E 001°36'919.0
2018-May-18 18:01N 51°06' E 001°23'2 1.4
2018-May-18 16:44N 51°07' E 001°22'418.6
2018-May-18 16:31N 51°05' E 001°28'918.9
2018-May-18 16:01N 51°00' E 001°41'7 4.5
2018-May-18 14:30N 50°58' E 001°51'1117.0
2018-May-18 13:51N 51°01' E 001°34'619.3
2018-May-18 13:31N 51°05' E 001°25'4 3.9
2018-May-18 12:27N 51°07' E 001°20'3 6.0
2018-May-18 12:01N 51°07' E 001°24'918.7
2018-May-18 11:31N 51°02' E 001°37'917.3
2018-May-18 11:01N 50°58' E 001°50'1 0.4
2018-May-18 09:49N 50°58' E 001°50'310.5
2018-May-18 09:29N 50°58' E 001°45'816.3
2018-May-18 09:00N 50°59' E 001°33'918.0
2018-May-18 08:29N 51°06' E 001°23'2 4.3
2018-May-18 07:57N 51°07' E 001°20'0 0.3
2018-May-18 06:58N 51°07' E 001°20'3 6.9
2018-May-18 06:30N 51°07' E 001°25'612.5
2018-May-18 06:00N 51°03' E 001°33'816.8
2018-May-18 05:31N 50°58' E 001°44'4 7.9
2018-May-18 04:59N 50°58' E 001°51'0 0.0
2018-May-18 04:18N 50°58' E 001°51'0 0.0
2018-May-18 03:48N 50°58' E 001°51'0 0.0
2018-May-18 03:25N 50°58' E 001°51'0 0.0
2018-May-18 03:00N 50°58' E 001°51'0 0.0
2018-May-18 01:50N 50°58' E 001°51'0 0.0
2018-May-18 01:19N 50°58' E 001°51'1 2.4
2018-May-18 01:00N 50°58' E 001°50'4 7.4
2018-May-18 00:30N 50°58' E 001°44'1 2.9
2018-May-18 00:00N 50°58' E 001°42'4 8.3
2018-May-17 23:29N 50°60' E 001°35'612.4
2018-May-17 23:01N 51°03' E 001°28'7 7.2
2018-May-17 22:06N 51°07' E 001°20'0 0.0
2018-May-17 22:00N 51°07' E 001°20'0 0.2
2018-May-17 20:59N 51°07' E 001°20'816.6
2018-May-17 20:30N 51°04' E 001°31'918.9
2018-May-17 20:01N 50°58' E 001°44'5 7.3
2018-May-17 19:23N 50°58' E 001°51'0 0.0
2018-May-17 18:47N 50°58' E 001°51'1 1.8
2018-May-17 18:29N 50°58' E 001°50'714.2
2018-May-17 18:00N 50°59' E 001°40'917.9
2018-May-17 17:30N 51°03' E 001°27'6 7.8
2018-May-17 16:43N 51°07' E 001°20'0 0.0
2018-May-17 16:20N 51°07' E 001°20'3 8.8
2018-May-17 16:01N 51°07' E 001°25'918.1
2018-May-17 15:31N 51°03' E 001°38'816.2
2018-May-17 15:00N 50°58' E 001°49'1 2.3
2018-May-17 14:20N 50°58' E 001°51'0 0.0
2018-May-17 13:59N 50°58' E 001°51'3 6.3
2018-May-17 13:30N 50°58' E 001°46'917.2
2018-May-17 13:00N 51°01' E 001°34'10 6.4
2018-May-17 11:26N 51°07' E 001°21'717.2
2018-May-17 11:00N 51°04' E 001°32'918.4
2018-May-17 10:30N 50°59' E 001°43'5 7.4
2018-May-17 09:52N 50°58' E 001°51'0 0.0
2018-May-17 09:28N 50°58' E 001°51'1 2.3
2018-May-17 09:01N 50°58' E 001°49'815.3
2018-May-17 08:30N 50°60' E 001°37'917.8
2018-May-17 08:00N 51°04' E 001°25'5 3.3
2018-May-17 06:38N 51°07' E 001°20'0 0.0
2018-May-17 06:25N 51°07' E 001°20'2 2.4
2018-May-17 05:47N 51°07' E 001°22'310.7
2018-May-17 05:30N 51°09' E 001°26'0 0.1
2018-May-17 05:00N 51°09' E 001°26'0 0.8
2018-May-17 04:30N 51°09' E 001°26'2 3.6
2018-May-17 04:01N 51°08' E 001°25'3 6.3
2018-May-17 03:30N 51°07' E 001°20'0 0.2
2018-May-17 02:58N 51°07' E 001°20'2 2.9
2018-May-17 02:25N 51°07' E 001°23'614.6
2018-May-17 02:00N 51°04' E 001°31'816.5
2018-May-17 01:31N 50°59' E 001°42'611.8
2018-May-17 01:01N 50°58' E 001°51'0 0.2
2018-May-17 00:12N 50°58' E 001°51'2 7.4
2018-May-17 00:00N 50°58' E 001°49'611.9
2018-May-16 23:27N 50°59' E 001°38'818.9
2018-May-16 23:01N 51°03' E 001°27'5 3.0
2018-May-16 21:23N 51°07' E 001°22'718.8
2018-May-16 21:00N 51°05' E 001°33'816.8
2018-May-16 20:30N 50°59' E 001°43'5 5.4
2018-May-16 19:31N 50°58' E 001°51'0 0.0
2018-May-16 19:06N 50°58' E 001°51'0 1.8
2018-May-16 18:58N 50°58' E 001°51'612.5
2018-May-16 18:30N 50°58' E 001°42'3 6.4
2018-May-16 18:00N 50°60' E 001°37'917.9
2018-May-16 17:30N 51°05' E 001°26'4 3.2
2018-May-16 16:13N 51°07' E 001°21'314.1
2018-May-16 16:00N 51°06' E 001°25'917.4
2018-May-16 15:30N 51°02' E 001°37'816.2
2018-May-16 15:00N 50°58' E 001°49'2 2.6
2018-May-16 14:24N 50°58' E 001°51'0 0.1
2018-May-16 13:29N 50°58' E 001°51'816.3
2018-May-16 13:00N 50°59' E 001°38'918.6
2018-May-16 12:30N 51°05' E 001°27'5 4.2
2018-May-16 11:18N 51°07' E 001°20'2 5.3
2018-May-16 11:00N 51°07' E 001°23'917.8
2018-May-16 10:30N 51°03' E 001°35'917.3
2018-May-16 10:00N 50°58' E 001°46'3 2.2
2018-May-16 08:42N 50°58' E 001°51'311.9
2018-May-16 08:29N 50°58' E 001°47'816.5
2018-May-16 08:00N 51°00' E 001°35'918.4
2018-May-16 07:30N 51°06' E 001°23'2 2.1
2018-May-16 06:20N 51°07' E 001°20'1 3.0
2018-May-16 06:00N 51°07' E 001°22'917.5
2018-May-16 05:30N 51°04' E 001°34'917.5
2018-May-16 05:01N 50°58' E 001°45'4 4.4
2018-May-16 04:08N 50°58' E 001°51'0 0.5
2018-May-16 03:43N 50°58' E 001°51'313.4
2018-May-16 03:30N 50°58' E 001°46'816.3
2018-May-16 03:00N 50°60' E 001°34'816.5
2018-May-16 02:30N 51°06' E 001°24'3 4.6
2018-May-16 01:48N 51°07' E 001°20'0 0.3
2018-May-16 01:24N 51°07' E 001°20'512.5
2018-May-16 01:01N 51°06' E 001°27'918.1
2018-May-16 00:30N 51°01' E 001°40'714.8
2018-May-16 00:01N 50°58' E 001°51'0 0.3
2018-May-15 23:07N 50°58' E 001°51'0 1.9
2018-May-15 23:00N 50°58' E 001°51'816.9
2018-May-15 22:30N 50°59' E 001°37'918.4
2018-May-15 22:00N 51°05' E 001°26'4 3.1
2018-May-15 20:34N 51°07' E 001°20'0 1.9
2018-May-15 20:21N 51°07' E 001°21'516.0
2018-May-15 20:00N 51°06' E 001°29'916.9
2018-May-15 19:30N 51°01' E 001°39'815.4
2018-May-15 19:00N 50°58' E 001°51'0 0.3
2018-May-15 18:30N 50°58' E 001°51'1 2.8
2018-May-15 18:00N 50°58' E 001°49'510.0
2018-May-15 17:30N 50°59' E 001°41'918.5
2018-May-15 17:00N 51°04' E 001°29'610.7
2018-May-15 16:24N 51°07' E 001°20'0 0.0
2018-May-15 15:52N 51°07' E 001°20'2 5.9
2018-May-15 15:31N 51°07' E 001°23'918.8
2018-May-15 15:00N 51°02' E 001°36'917.6
2018-May-15 14:30N 50°58' E 001°49'1 1.4
2018-May-15 13:30N 50°58' E 001°51'612.8
2018-May-15 13:00N 50°59' E 001°41'1019.3
2018-May-15 12:30N 51°04' E 001°28'5 3.1
2018-May-15 10:59N 51°07' E 001°23'918.2
2018-May-15 10:30N 51°03' E 001°35'917.5
2018-May-15 10:00N 50°58' E 001°46'3 5.0
2018-May-15 09:21N 50°58' E 001°51'0 0.6
2018-May-15 08:38N 50°58' E 001°50'315.6
2018-May-15 08:25N 50°58' E 001°45'716.9
2018-May-15 08:00N 51°00' E 001°35'918.4
2018-May-15 07:30N 51°06' E 001°23'2 2.2
2018-May-15 06:26N 51°07' E 001°20'4 8.7
2018-May-15 06:00N 51°07' E 001°26'815.6
2018-May-15 05:30N 51°02' E 001°36'816.1
2018-May-15 05:00N 50°58' E 001°47'2 3.1
2018-May-15 04:13N 50°58' E 001°51'0 0.5
2018-May-15 03:56N 50°58' E 001°51'715.5
2018-May-15 03:30N 50°58' E 001°40'814.6
2018-May-15 02:59N 51°03' E 001°31'611.6
2018-May-15 02:30N 51°06' E 001°23'3 2.2
2018-May-15 01:18N 51°07' E 001°20'2 4.6
2018-May-15 00:57N 51°07' E 001°23'717.0
2018-May-15 00:30N 51°05' E 001°34'815.9
2018-May-15 00:00N 50°59' E 001°43'5 4.0
2018-May-14 22:42N 50°58' E 001°51'1 1.9
2018-May-14 22:25N 50°58' E 001°50'918.4
2018-May-14 21:55N 51°01' E 001°36'818.6
2018-May-14 21:30N 51°05' E 001°26'4 4.0
2018-May-14 20:25N 51°07' E 001°20'513.5
2018-May-14 20:00N 51°06' E 001°28'918.7
2018-May-14 19:30N 51°00' E 001°40'714.0
2018-May-14 19:00N 50°58' E 001°51'0 0.0
2018-May-14 18:28N 50°58' E 001°51'3 7.4
2018-May-14 18:00N 50°58' E 001°45'816.8
2018-May-14 17:30N 51°01' E 001°33'10 7.7
2018-May-14 16:09N 51°07' E 001°20'0 0.5
2018-May-14 15:54N 51°07' E 001°20'512.2
2018-May-14 15:30N 51°06' E 001°27'918.5
2018-May-14 15:01N 51°01' E 001°39'815.2
2018-May-14 14:30N 50°58' E 001°51'0 0.2
2018-May-14 14:00N 50°58' E 001°51'1 1.7
2018-May-14 13:31N 50°58' E 001°50'815.4
2018-May-14 13:00N 50°58' E 001°38'917.3
2018-May-14 12:30N 51°04' E 001°27'6 6.6
2018-May-14 11:38N 51°07' E 001°20'0 0.0
2018-May-14 11:20N 51°07' E 001°20'2 4.0
2018-May-14 10:55N 51°07' E 001°23'717.4
2018-May-14 10:31N 51°05' E 001°33'917.7
2018-May-14 10:01N 50°59' E 001°44'4 8.8
2018-May-14 09:30N 50°58' E 001°51'0 0.0
2018-May-14 09:01N 50°58' E 001°51'2 3.3
2018-May-14 08:30N 50°58' E 001°48'918.7
2018-May-14 08:00N 50°60' E 001°34'918.9
2018-May-14 07:30N 51°07' E 001°23'2 3.5
2018-May-14 06:54N 51°07' E 001°20'0 0.0
2018-May-14 06:16N 51°07' E 001°20'2 8.2
2018-May-14 06:00N 51°07' E 001°23'917.2
2018-May-14 05:30N 51°03' E 001°36'816.5
2018-May-14 05:01N 50°58' E 001°46'3 6.1
2018-May-14 04:29N 50°58' E 001°51'0 0.0
2018-May-14 03:46N 50°58' E 001°51'310.8
2018-May-14 03:31N 50°58' E 001°47'1117.3
2018-May-14 02:54N 51°03' E 001°32'  

Dump ship's entire track history